Time,TemperatureF,DewpointF,PressureIn,WindDirection,WindDirectionDegrees,WindSpeedMPH,WindSpeedGustMPH,Humidity,HourlyPrecipIn,Conditions,Clouds,dailyrainin,SolarRadiationWatts/m^2,SoftwareType,DateUTC
2013-06-11 00:02:00,49.0,37.0,-100.00,SSW,209,8.0,14.0,62,0.00,,,0.00,1.000000,,2013-06-11 07:02:00,
2013-06-11 00:12:00,49.0,37.0,-100.00,SSW,209,8.0,14.0,62,0.00,,,0.00,1.000000,,2013-06-11 07:12:00,
2013-06-11 00:22:00,49.0,37.0,-100.00,SSW,209,8.0,14.0,62,0.00,,,0.00,1.000000,,2013-06-11 07:22:00,
2013-06-11 00:52:00,46.0,36.0,-100.00,SW,214,9.0,15.0,68,0.00,,,0.00,1.000000,,2013-06-11 07:52:00,
2013-06-11 01:02:00,46.0,36.0,-100.00,SW,214,9.0,15.0,68,0.00,,,0.00,1.000000,,2013-06-11 08:02:00,
2013-06-11 01:12:00,46.0,36.0,-100.00,SW,214,9.0,15.0,68,0.00,,,0.00,1.000000,,2013-06-11 08:12:00,
2013-06-11 01:22:00,46.0,36.0,-100.00,SW,214,9.0,15.0,68,0.00,,,0.00,1.000000,,2013-06-11 08:22:00,
2013-06-11 01:52:00,45.0,35.0,-100.00,SSW,210,11.0,19.0,67,0.00,,,0.00,1.000000,,2013-06-11 08:52:00,
2013-06-11 02:02:00,45.0,35.0,-100.00,SSW,210,11.0,19.0,67,0.00,,,0.00,1.000000,,2013-06-11 09:02:00,
2013-06-11 02:12:00,45.0,35.0,-100.00,SSW,210,11.0,19.0,67,0.00,,,0.00,1.000000,,2013-06-11 09:12:00,
2013-06-11 02:22:00,45.0,35.0,-100.00,SSW,210,11.0,19.0,67,0.00,,,0.00,1.000000,,2013-06-11 09:22:00,
2013-06-11 02:53:00,44.0,34.0,-100.00,SSW,212,11.0,18.0,69,0.00,,,0.00,1.000000,,2013-06-11 09:53:00,
2013-06-11 03:03:00,44.0,34.0,-100.00,SSW,212,11.0,18.0,69,0.00,,,0.00,1.000000,,2013-06-11 10:03:00,
2013-06-11 03:12:00,44.0,34.0,-100.00,SSW,212,11.0,18.0,69,0.00,,,0.00,1.000000,,2013-06-11 10:12:00,
2013-06-11 03:22:00,44.0,34.0,-100.00,SSW,212,11.0,18.0,69,0.00,,,0.00,1.000000,,2013-06-11 10:22:00,
2013-06-11 03:43:00,42.0,35.0,-100.00,SW,220,11.0,19.0,75,0.00,,,0.00,1.000000,,2013-06-11 10:43:00,
2013-06-11 03:52:00,42.0,35.0,-100.00,SW,220,11.0,19.0,75,0.00,,,0.00,1.000000,,2013-06-11 10:52:00,
2013-06-11 04:02:00,42.0,35.0,-100.00,SW,220,11.0,19.0,75,0.00,,,0.00,1.000000,,2013-06-11 11:02:00,
2013-06-11 04:12:00,42.0,35.0,-100.00,SW,220,11.0,19.0,75,0.00,,,0.00,1.000000,,2013-06-11 11:12:00,
2013-06-11 04:21:00,42.0,35.0,-100.00,SW,220,11.0,19.0,75,0.00,,,0.00,1.000000,,2013-06-11 11:21:00,
2013-06-11 04:42:00,41.0,35.0,-100.00,SW,220,11.0,20.0,80,0.00,,,-99.99,1.000000,,2013-06-11 11:42:00,
2013-06-11 04:52:00,41.0,35.0,-100.00,SW,220,11.0,20.0,80,0.00,,,-99.99,1.000000,,2013-06-11 11:52:00,
2013-06-11 05:02:00,41.0,35.0,-100.00,SW,220,11.0,20.0,80,0.00,,,-99.99,1.000000,,2013-06-11 12:02:00,
2013-06-11 05:12:00,41.0,35.0,-100.00,SW,220,11.0,20.0,80,0.00,,,-99.99,1.000000,,2013-06-11 12:12:00,
2013-06-11 05:21:00,41.0,35.0,-100.00,SW,220,11.0,20.0,80,0.00,,,-99.99,1.000000,,2013-06-11 12:21:00,
2013-06-11 05:52:00,40.0,34.0,-100.00,SW,221,10.0,19.0,80,0.00,,,-99.99,1.000000,,2013-06-11 12:52:00,
2013-06-11 06:02:00,40.0,34.0,-100.00,SW,221,10.0,19.0,80,0.00,,,-99.99,1.000000,,2013-06-11 13:02:00,
2013-06-11 06:12:00,40.0,34.0,-100.00,SW,221,10.0,19.0,80,0.00,,,-99.99,1.000000,,2013-06-11 13:12:00,
2013-06-11 06:22:00,40.0,34.0,-100.00,SW,221,10.0,19.0,80,0.00,,,-99.99,1.000000,,2013-06-11 13:22:00,
2013-06-11 06:52:00,42.0,35.0,-100.00,SW,224,12.0,19.0,75,0.00,,,0.00,25.000000,,2013-06-11 13:52:00,
2013-06-11 07:02:00,42.0,35.0,-100.00,SW,224,12.0,19.0,75,0.00,,,0.00,25.000000,,2013-06-11 14:02:00,
2013-06-11 07:12:00,42.0,35.0,-100.00,SW,224,12.0,19.0,75,0.00,,,0.00,25.000000,,2013-06-11 14:12:00,
2013-06-11 07:22:00,42.0,35.0,-100.00,SW,224,12.0,19.0,75,0.00,,,0.00,25.000000,,2013-06-11 14:22:00,
2013-06-11 07:53:00,43.0,35.0,-100.00,SW,221,13.0,23.0,72,0.00,,,0.00,72.000000,,2013-06-11 14:53:00,
2013-06-11 08:02:00,43.0,35.0,-100.00,SW,221,13.0,23.0,72,0.00,,,0.00,72.000000,,2013-06-11 15:02:00,
2013-06-11 08:12:00,43.0,35.0,-100.00,SW,221,13.0,23.0,72,0.00,,,0.00,72.000000,,2013-06-11 15:12:00,
2013-06-11 08:22:00,43.0,35.0,-100.00,SW,221,13.0,23.0,72,0.00,,,0.00,72.000000,,2013-06-11 15:22:00,
2013-06-11 08:53:00,42.0,34.0,-100.00,SW,218,12.0,22.0,72,0.00,,,0.00,94.000000,,2013-06-11 15:53:00,
2013-06-11 09:02:00,42.0,34.0,-100.00,SW,218,12.0,22.0,72,0.00,,,0.00,94.000000,,2013-06-11 16:02:00,
2013-06-11 09:12:00,42.0,34.0,-100.00,SW,218,12.0,22.0,72,0.00,,,0.00,94.000000,,2013-06-11 16:12:00,
2013-06-11 09:22:00,42.0,34.0,-100.00,SW,218,12.0,22.0,72,0.00,,,0.00,94.000000,,2013-06-11 16:22:00,
2013-06-11 09:42:00,48.0,32.0,-100.00,SW,214,13.0,25.0,54,0.00,,,0.00,551.000000,,2013-06-11 16:42:00,
2013-06-11 09:52:00,48.0,32.0,-100.00,SW,214,13.0,25.0,54,0.00,,,0.00,551.000000,,2013-06-11 16:52:00,
2013-06-11 10:02:00,48.0,32.0,-100.00,SW,214,13.0,25.0,54,0.00,,,0.00,551.000000,,2013-06-11 17:02:00,
2013-06-11 10:12:00,48.0,32.0,-100.00,SW,214,13.0,25.0,54,0.00,,,0.00,551.000000,,2013-06-11 17:12:00,
2013-06-11 10:22:00,48.0,32.0,-100.00,SW,214,13.0,25.0,54,0.00,,,0.00,551.000000,,2013-06-11 17:22:00,
2013-06-11 10:52:00,51.0,33.0,-100.00,SW,217,12.0,23.0,49,0.00,,,0.00,728.000000,,2013-06-11 17:52:00,
2013-06-11 11:02:00,51.0,33.0,-100.00,SW,217,12.0,23.0,49,0.00,,,0.00,728.000000,,2013-06-11 18:02:00,
2013-06-11 11:12:00,51.0,33.0,-100.00,SW,217,12.0,23.0,49,0.00,,,0.00,728.000000,,2013-06-11 18:12:00,
2013-06-11 11:22:00,51.0,33.0,-100.00,SW,217,12.0,23.0,49,0.00,,,0.00,728.000000,,2013-06-11 18:22:00,
2013-06-11 11:43:00,53.0,31.0,-100.00,SW,217,12.0,21.0,42,0.00,,,0.00,852.000000,,2013-06-11 18:43:00,
2013-06-11 11:52:00,53.0,31.0,-100.00,SW,217,12.0,21.0,42,0.00,,,0.00,852.000000,,2013-06-11 18:52:00,
2013-06-11 12:02:00,53.0,31.0,-100.00,SW,217,12.0,21.0,42,0.00,,,0.00,852.000000,,2013-06-11 19:02:00,
2013-06-11 12:12:00,53.0,31.0,-100.00,SW,217,12.0,21.0,42,0.00,,,0.00,852.000000,,2013-06-11 19:12:00,
2013-06-11 12:21:00,53.0,31.0,-100.00,SW,217,12.0,21.0,42,0.00,,,0.00,852.000000,,2013-06-11 19:21:00,
2013-06-11 12:52:00,56.0,31.0,-100.00,SSW,213,12.0,21.0,38,0.00,,,0.00,934.000000,,2013-06-11 19:52:00,
2013-06-11 13:02:00,56.0,31.0,-100.00,SSW,213,12.0,21.0,38,0.00,,,0.00,934.000000,,2013-06-11 20:02:00,
2013-06-11 13:12:00,56.0,31.0,-100.00,SSW,213,12.0,21.0,38,0.00,,,0.00,934.000000,,2013-06-11 20:12:00,
2013-06-11 13:22:00,56.0,31.0,-100.00,SSW,213,12.0,21.0,38,0.00,,,0.00,934.000000,,2013-06-11 20:22:00,
2013-06-11 13:52:00,59.0,28.0,-100.00,SW,216,9.0,18.0,31,0.00,,,0.00,976.000000,,2013-06-11 20:52:00,
2013-06-11 14:02:00,59.0,28.0,-100.00,SW,216,9.0,18.0,31,0.00,,,0.00,976.000000,,2013-06-11 21:02:00,
2013-06-11 14:12:00,59.0,28.0,-100.00,SW,216,9.0,18.0,31,0.00,,,0.00,976.000000,,2013-06-11 21:12:00,
2013-06-11 14:22:00,59.0,28.0,-100.00,SW,216,9.0,18.0,31,0.00,,,0.00,976.000000,,2013-06-11 21:22:00,
2013-06-11 14:53:00,62.0,28.0,-100.00,SSW,213,7.0,17.0,27,0.00,,,0.00,968.000000,,2013-06-11 21:53:00,
2013-06-11 15:03:00,62.0,28.0,-100.00,SSW,213,7.0,17.0,27,0.00,,,0.00,968.000000,,2013-06-11 22:03:00,
2013-06-11 15:12:00,62.0,28.0,-100.00,SSW,213,7.0,17.0,27,0.00,,,0.00,968.000000,,2013-06-11 22:12:00,
2013-06-11 15:22:00,62.0,28.0,-100.00,SSW,213,7.0,17.0,27,0.00,,,0.00,968.000000,,2013-06-11 22:22:00,
2013-06-11 15:42:00,62.0,25.0,-100.00,SSW,203,8.0,15.0,24,0.00,,,0.00,916.000000,,2013-06-11 22:42:00,
2013-06-11 15:52:00,62.0,25.0,-100.00,SSW,203,8.0,15.0,24,0.00,,,0.00,916.000000,,2013-06-11 22:52:00,
2013-06-11 16:02:00,62.0,25.0,-100.00,SSW,203,8.0,15.0,24,0.00,,,0.00,916.000000,,2013-06-11 23:02:00,
2013-06-11 16:12:00,62.0,25.0,-100.00,SSW,203,8.0,15.0,24,0.00,,,0.00,916.000000,,2013-06-11 23:12:00,
2013-06-11 16:21:00,62.0,25.0,-100.00,SSW,203,8.0,15.0,24,0.00,,,0.00,916.000000,,2013-06-11 23:21:00,
2013-06-11 16:52:00,63.0,25.0,-100.00,SSW,211,6.0,16.0,23,0.00,,,0.00,812.000000,,2013-06-11 23:52:00,
2013-06-11 17:02:00,63.0,25.0,-100.00,SSW,211,6.0,16.0,23,0.00,,,0.00,812.000000,,2013-06-12 00:02:00,
2013-06-11 17:12:00,63.0,25.0,-100.00,SSW,211,6.0,16.0,23,0.00,,,0.00,812.000000,,2013-06-12 00:12:00,
2013-06-11 17:22:00,63.0,25.0,-100.00,SSW,211,6.0,16.0,23,0.00,,,0.00,812.000000,,2013-06-12 00:22:00,
2013-06-11 17:52:00,62.0,25.0,-100.00,SW,224,7.0,14.0,24,0.00,,,0.00,667.000000,,2013-06-12 00:52:00,
2013-06-11 18:02:00,62.0,25.0,-100.00,SW,224,7.0,14.0,24,0.00,,,0.00,667.000000,,2013-06-12 01:02:00,
2013-06-11 18:12:00,62.0,25.0,-100.00,SW,224,7.0,14.0,24,0.00,,,0.00,667.000000,,2013-06-12 01:12:00,
2013-06-11 18:22:00,62.0,25.0,-100.00,SW,224,7.0,14.0,24,0.00,,,0.00,667.000000,,2013-06-12 01:22:00,
2013-06-11 18:52:00,58.0,29.0,-100.00,SW,215,8.0,12.0,33,0.00,,,0.00,490.000000,,2013-06-12 01:52:00,
2013-06-11 19:02:00,58.0,29.0,-100.00,SW,215,8.0,12.0,33,0.00,,,0.00,490.000000,,2013-06-12 02:02:00,
2013-06-11 19:12:00,58.0,29.0,-100.00,SW,215,8.0,12.0,33,0.00,,,0.00,490.000000,,2013-06-12 02:12:00,
2013-06-11 19:22:00,58.0,29.0,-100.00,SW,215,8.0,12.0,33,0.00,,,0.00,490.000000,,2013-06-12 02:22:00,
2013-06-11 19:52:00,52.0,28.0,-100.00,SSW,206,6.0,15.0,40,0.00,,,0.00,256.000000,,2013-06-12 02:52:00,
2013-06-11 20:02:00,52.0,28.0,-100.00,SSW,206,6.0,15.0,40,0.00,,,0.00,256.000000,,2013-06-12 03:02:00,
2013-06-11 20:12:00,52.0,28.0,-100.00,SSW,206,6.0,15.0,40,0.00,,,0.00,256.000000,,2013-06-12 03:12:00,
2013-06-11 20:22:00,52.0,28.0,-100.00,SSW,206,6.0,15.0,40,0.00,,,0.00,256.000000,,2013-06-12 03:22:00,
2013-06-11 20:53:00,47.0,30.0,-100.00,SSW,199,6.0,11.0,52,0.00,,,0.00,23.000000,,2013-06-12 03:53:00,
2013-06-11 21:02:00,47.0,30.0,-100.00,SSW,199,6.0,11.0,52,0.00,,,0.00,23.000000,,2013-06-12 04:02:00,
2013-06-11 21:12:00,47.0,30.0,-100.00,SSW,199,6.0,11.0,52,0.00,,,0.00,23.000000,,2013-06-12 04:12:00,
2013-06-11 21:22:00,47.0,30.0,-100.00,SSW,199,6.0,11.0,52,0.00,,,0.00,23.000000,,2013-06-12 04:22:00,
2013-06-11 21:52:00,43.0,30.0,-100.00,SSE,165,3.0,7.0,59,0.00,,,0.00,4.000000,,2013-06-12 04:52:00,
2013-06-11 22:02:00,43.0,30.0,-100.00,SSE,165,3.0,7.0,59,0.00,,,0.00,4.000000,,2013-06-12 05:02:00,
2013-06-11 22:12:00,43.0,30.0,-100.00,SSE,165,3.0,7.0,59,0.00,,,0.00,4.000000,,2013-06-12 05:12:00,
2013-06-11 22:22:00,43.0,30.0,-100.00,SSE,165,3.0,7.0,59,0.00,,,0.00,4.000000,,2013-06-12 05:22:00,
2013-06-11 22:52:00,40.0,30.0,-100.00,SE,126,3.0,7.0,67,0.00,,,0.00,1.000000,,2013-06-12 05:52:00,
2013-06-11 23:02:00,40.0,30.0,-100.00,SE,126,3.0,7.0,67,0.00,,,0.00,1.000000,,2013-06-12 06:02:00,
2013-06-11 23:12:00,40.0,30.0,-100.00,SE,126,3.0,7.0,67,0.00,,,0.00,1.000000,,2013-06-12 06:12:00,
2013-06-11 23:22:00,40.0,30.0,-100.00,SE,126,3.0,7.0,67,0.00,,,0.00,1.000000,,2013-06-12 06:22:00,
2013-06-11 23:52:00,38.0,29.0,-100.00,ESE,122,3.0,5.0,71,0.00,,,0.00,1.000000,,2013-06-12 06:52:00,